EW2941 Weather Reports


Display with metric or nautical units.
time (UTC)temp
F
wind
direction
speed
MPH
gust
MPH
rain 1hr
in
rain 24hr
in
rain mn
in
humidity
%
barometer
mb
20260510104601 52 331 0.0 0.0 0.00 0.00 0.00 96 1011.0
20260510103042 51 331 0.0 0.0 0.00 0.00 0.00 95 1010.9
20260510101514 51 331 0.0 0.0 0.00 0.00 0.00 95 1010.6
20260510100110 52 331 0.0 0.0 0.00 0.00 0.00 95 1010.4
20260510094550 52 331 0.0 0.0 0.00 0.00 0.00 95 1010.4
20260510093017 53 331 0.0 0.0 0.00 0.00 0.00 94 1010.2
20260510091549 53 331 0.0 0.0 0.00 0.00 0.00 94 1010.1
20260510090040 54 331 0.0 0.0 0.00 0.00 0.00 94 1010.0
20260510084511 55 332 0.0 0.0 0.00 0.00 0.00 94 1010.0
20260510083056 55 331 0.0 0.0 0.00 0.00 0.00 95 1009.9
20260510081521 55 331 0.0 0.0 0.00 0.00 0.00 94 1009.8
20260510080110 54 331 0.0 0.0 0.00 0.00 0.00 93 1009.8
20260510074535 55 331 0.0 0.0 0.00 0.00 0.00 93 1009.6
20260510073013 55 331 0.0 0.0 0.00 0.00 0.00 93 1009.4
20260510071546 55 331 0.0 0.0 0.00 0.00 0.00 92 1009.3
20260510070034 56 331 0.0 0.0 0.00 0.00 0.00 92 1009.2
20260510064509 56 332 0.0 0.0 0.00 0.00 0.00 91 1009.2
20260510063051 57 331 0.0 0.0 0.00 0.00 0.00 91 1009.2
20260510061521 57 331 0.0 0.0 0.00 0.00 0.00 90 1009.2
20260510060002 58 331 0.0 0.0 0.00 0.00 0.00 90 1009.1
20260510054544 58 331 0.0 0.0 0.00 0.00 0.00 90 1009.1
20260510053027 58 331 0.0 0.0 0.00 0.00 0.00 89 1009.2
20260510051600 58 331 0.0 0.0 0.00 0.00 0.00 88 1009.0
20260510050042 59 331 0.0 0.0 0.00 0.00 0.00 87 1009.0
20260510044527 59 331 0.0 0.0 0.00 0.00 0.00 86 1009.1
20260510043110 59 331 0.0 0.0 0.00 0.00 0.00 86 1009.1
20260510041528 59 331 0.0 0.0 0.00 0.00 0.00 86 1009.0
20260510040011 59 331 0.0 0.0 0.00 0.00 0.00 85 1009.0
20260510034558 59 331 0.0 0.0 0.00 0.00 0.00 84 1008.9
20260510033043 59 332 0.0 0.0 0.00 0.00 0.00 84 1008.8
20260510031512 59 332 0.0 0.0 0.00 0.00 0.00 84 1008.6
20260510030100 59 332 0.0 0.0 0.00 0.00 0.00 83 1008.6
20260510024539 60 331 0.0 0.0 0.00 0.00 0.00 82 1008.4
20260510023018 60 331 0.0 0.0 0.00 0.00 0.00 81 1008.3
20260510021550 60 331 0.0 0.0 0.00 0.00 0.00 81 1008.3
20260510020036 61 331 0.0 0.0 0.00 0.00 0.00 80 1008.0
20260510014513 61 331 0.0 0.0 0.00 0.00 0.00 79 1007.9
20260510013057 62 332 0.0 0.0 0.00 0.00 0.00 78 1007.7
20260510011537 62 331 0.0 0.0 0.00 0.00 0.00 77 1007.5
20260510010007 63 331 0.0 0.0 0.00 0.00 0.00 75 1007.3
20260510004550 64 331 0.0 0.0 0.00 0.00 0.00 74 1007.2
20260510003032 66 331 0.0 0.0 0.00 0.00 0.00 72 1007.1
20260510001504 67 331 0.0 0.0 0.00 0.00 0.00 69 1006.9
20260509234544 69 331 0.0 0.0 0.00 0.00 0.00 66 1006.6
20260509233013 70 332 0.0 1.0 0.00 0.00 0.00 64 1006.5
20260509231545 70 331 0.0 0.0 0.00 0.00 0.00 63 1006.6
20260509230023 71 331 0.0 1.0 0.00 0.00 0.00 61 1006.6
20260509224505 72 331 0.0 1.0 0.00 0.00 0.00 61 1006.5
20260509223059 73 331 0.0 1.0 0.00 0.00 0.00 60 1006.5
20260509221521 73 332 0.0 1.0 0.00 0.00 0.00 58 1006.5
20260509220004 73 331 0.0 2.0 0.00 0.00 0.00 58 1006.5
20260509214548 74 155 0.0 1.0 0.00 0.00 0.00 62 1006.6
20260509213030 74 3 0.0 1.0 0.00 0.00 0.00 58 1006.6
20260509211501 74 25 0.0 4.0 0.00 0.00 0.00 58 1006.4
20260509210059 73 341 0.0 2.0 0.00 0.00 0.00 60 1006.3
20260509204539 73 320 0.0 2.0 0.00 0.00 0.00 59 1006.3
20260509203014 74 2 1.0 3.0 0.00 0.00 0.00 59 1006.3
20260509201546 74 336 0.0 4.0 0.00 0.00 0.00 60 1006.4
20260509200020 74 330 0.0 4.0 0.00 0.00 0.00 62 1006.6
20260509194503 72 335 0.0 2.0 0.00 0.00 0.00 66 1006.8
20260509193046 72 335 0.0 3.0 0.00 0.00 0.00 65 1007.0
20260509191521 71 234 0.0 2.0 0.00 0.00 0.00 68 1007.3
20260509190058 69 246 0.0 0.0 0.00 0.00 0.00 71 1007.7
20260509184553 70 246 0.0 1.0 0.00 0.00 0.00 67 1007.9
20260509183017 71 315 0.0 2.0 0.00 0.00 0.00 69 1008.0
20260509181605 69 255 0.0 1.0 0.00 0.00 0.00 68 1008.2
20260509180029 70 340 0.0 1.0 0.00 0.00 0.00 66 1008.2
20260509174509 70 291 1.0 5.0 0.00 0.00 0.00 65 1008.3
20260509173102 71 262 0.0 1.0 0.00 0.00 0.00 66 1008.4
20260509171518 71 265 0.0 3.0 0.00 0.00 0.00 66 1008.5
20260509170058 70 332 0.0 2.0 0.00 0.00 0.00 70 1008.8
20260509164534 69 224 0.0 1.0 0.00 0.00 0.00 68 1009.0
20260509163016 70 260 0.0 3.0 0.00 0.00 0.00 66 1008.9
20260509161545 70 278 0.0 4.0 0.00 0.00 0.00 65 1009.0
20260509160032 72 349 0.0 5.0 0.00 0.00 0.00 63 1009.0
20260509154508 72 275 1.0 8.0 0.00 0.00 0.00 62 1009.3
20260509153047 72 243 0.0 2.0 0.00 0.00 0.00 65 1009.4
20260509151510 69 18 0.0 3.0 0.00 0.00 0.00 70 1009.6
20260509150048 69 16 0.0 2.0 0.00 0.00 0.00 68 1009.3
20260509144532 67 345 0.0 1.0 0.00 0.00 0.00 71 1009.8
20260509143005 66 235 0.0 2.0 0.00 0.00 0.00 72 1010.1
20260509141533 64 324 0.0 1.0 0.00 0.00 0.00 74 1010.1
20260509140011 64 245 0.0 1.0 0.00 0.00 0.00 74 1010.3
20260509134608 63 290 0.0 4.0 0.00 0.00 0.00 76 1010.5
20260509133037 61 103 0.0 1.0 0.00 0.00 0.00 77 1010.7
20260509131602 61 236 0.0 3.0 0.00 0.00 0.00 77 1010.6
20260509130052 60 215 0.0 0.0 0.00 0.00 0.00 77 1010.7
20260509124516 59 166 0.0 0.0 0.00 0.00 0.00 80 1010.7
20260509123130 58 165 0.0 0.0 0.00 0.00 0.00 81 1010.9
20260509121541 57 160 0.0 0.0 0.00 0.00 0.00 82 1010.7
20260509120003 55 160 0.0 0.0 0.00 0.00 0.00 83 1010.8
20260509114544 54 160 0.0 0.0 0.00 0.00 0.00 84 1010.9
20260509113032 53 160 0.0 0.0 0.00 0.00 0.00 84 1010.8
20260509111606 52 160 0.0 0.0 0.00 0.00 0.00 85 1010.8
20260509110039 50 160 0.0 0.0 0.00 0.00 0.00 86 1010.8